owner,sensor,date,latitude,longitude,vertical_datum,wind_speed,wind_to_direction,wind_speed_of_gust,qcFlag 
TCOON,ioos:station:TCOON:031:1,2019-10-01T00:24:00Z,28.4073,-96.7122,0.0,5.4,94.0,7.3,'11111222,11111222,11111222' 
TCOON,ioos:station:TCOON:031:1,2019-10-01T01:24:00Z,28.4073,-96.7122,0.0,5.0,93.0,6.6,'11111222,11111222,11111222' 
TCOON,ioos:station:TCOON:031:1,2019-10-01T02:24:00Z,28.4073,-96.7122,0.0,4.1,90.0,6.1,'11111222,11111222,11111222' 
TCOON,ioos:station:TCOON:031:1,2019-10-01T03:24:00Z,28.4073,-96.7122,0.0,4.6,94.0,7.2,'11111222,11111222,11111222' 
TCOON,ioos:station:TCOON:031:1,2019-10-01T04:24:00Z,28.4073,-96.7122,0.0,5.3,97.0,6.4,'11111222,11111222,11111222' 
TCOON,ioos:station:TCOON:031:1,2019-10-01T05:24:00Z,28.4073,-96.7122,0.0,5.4,100.0,6.6,'11111222,11111222,11111222' 
TCOON,ioos:station:TCOON:031:1,2019-10-01T06:30:00Z,28.4073,-96.7122,0.0,5.2,100.0,7.4,'11111222,11111222,11111222' 
TCOON,ioos:station:TCOON:031:1,2019-10-01T07:24:00Z,28.4073,-96.7122,0.0,4.2,103.0,5.5,'11111222,11111222,11111222' 
TCOON,ioos:station:TCOON:031:1,2019-10-01T08:24:00Z,28.4073,-96.7122,0.0,4.4,104.0,5.3,'11111222,11111222,11111222' 
TCOON,ioos:station:TCOON:031:1,2019-10-01T09:24:00Z,28.4073,-96.7122,0.0,3.4,100.0,4.5,'11111222,11111222,11111222' 
TCOON,ioos:station:TCOON:031:1,2019-10-01T10:24:00Z,28.4073,-96.7122,0.0,3.4,116.0,4.6,'11111222,11111222,11111222' 
TCOON,ioos:station:TCOON:031:1,2019-10-01T11:24:00Z,28.4073,-96.7122,0.0,1.9,93.0,2.6,'11111222,11111222,11111222' 
TCOON,ioos:station:TCOON:031:1,2019-10-01T12:24:00Z,28.4073,-96.7122,0.0,2.2,96.0,2.9,'11111222,11111222,11111222' 
TCOON,ioos:station:TCOON:031:1,2019-10-01T13:24:00Z,28.4073,-96.7122,0.0,2.4,100.0,3.1,'11111222,11111222,11111222' 
TCOON,ioos:station:TCOON:031:1,2019-10-01T14:30:00Z,28.4073,-96.7122,0.0,5.4,101.0,7.0,'11111222,11111222,11111222' 
TCOON,ioos:station:TCOON:031:1,2019-10-01T15:24:00Z,28.4073,-96.7122,0.0,5.9,128.0,8.2,'11111222,11111222,11111222' 
TCOON,ioos:station:TCOON:031:1,2019-10-01T16:30:00Z,28.4073,-96.7122,0.0,6.0,110.0,9.3,'11111222,11111222,11111222' 
TCOON,ioos:station:TCOON:031:1,2019-10-01T17:30:00Z,28.4073,-96.7122,0.0,6.1,93.0,10.4,'11111222,11111222,11111222' 
TCOON,ioos:station:TCOON:031:1,2019-10-01T18:30:00Z,28.4073,-96.7122,0.0,6.0,111.0,8.7,'11111222,11111222,11111222' 
TCOON,ioos:station:TCOON:031:1,2019-10-01T19:30:00Z,28.4073,-96.7122,0.0,5.4,117.0,7.8,'11111222,11111222,11111222' 
TCOON,ioos:station:TCOON:031:1,2019-10-01T20:30:00Z,28.4073,-96.7122,0.0,6.5,118.0,8.6,'11111222,11111222,11111222' 
TCOON,ioos:station:TCOON:031:1,2019-10-01T21:30:00Z,28.4073,-96.7122,0.0,6.6,114.0,9.0,'11111222,11111222,11111222' 
TCOON,ioos:station:TCOON:031:1,2019-10-01T22:30:00Z,28.4073,-96.7122,0.0,6.0,102.0,7.8,'11111222,11111222,11111222' 
TCOON,ioos:station:TCOON:031:1,2019-10-01T23:24:00Z,28.4073,-96.7122,0.0,7.5,112.0,9.0,'11111222,11111222,11111222' 
TCOON,ioos:station:TCOON:031:1,2019-10-02T00:24:00Z,28.4073,-96.7122,0.0,4.3,82.0,7.1,'11111222,11111222,11111222' 
TCOON,ioos:station:TCOON:031:1,2019-10-02T01:24:00Z,28.4073,-96.7122,0.0,3.6,86.0,4.8,'11111222,11111222,11111222' 
TCOON,ioos:station:TCOON:031:1,2019-10-02T02:24:00Z,28.4073,-96.7122,0.0,2.7,66.0,3.4,'11111222,11111222,11111222' 
TCOON,ioos:station:TCOON:031:1,2019-10-02T03:24:00Z,28.4073,-96.7122,0.0,3.2,88.0,4.3,'11111222,11111222,11111222' 
TCOON,ioos:station:TCOON:031:1,2019-10-02T04:42:00Z,28.4073,-96.7122,0.0,4.0,90.0,5.1,'11111222,11111222,11111222' 
TCOON,ioos:station:TCOON:031:1,2019-10-02T05:30:00Z,28.4073,-96.7122,0.0,5.5,106.0,7.3,'11111222,11111222,11111222' 
TCOON,ioos:station:TCOON:031:1,2019-10-02T06:24:00Z,28.4073,-96.7122,0.0,4.3,106.0,5.6,'11111222,11111222,11111222' 
TCOON,ioos:station:TCOON:031:1,2019-10-02T07:24:00Z,28.4073,-96.7122,0.0,3.4,104.0,4.4,'11111222,11111222,11111222' 
TCOON,ioos:station:TCOON:031:1,2019-10-02T08:24:00Z,28.4073,-96.7122,0.0,4.1,106.0,5.6,'11111222,11111222,11111222' 
TCOON,ioos:station:TCOON:031:1,2019-10-02T09:24:00Z,28.4073,-96.7122,0.0,2.4,108.0,3.7,'11111222,11111222,11111222' 
TCOON,ioos:station:TCOON:031:1,2019-10-02T10:24:00Z,28.4073,-96.7122,0.0,0.9,74.0,1.6,'11111222,11111222,11111222' 
TCOON,ioos:station:TCOON:031:1,2019-10-02T11:24:00Z,28.4073,-96.7122,0.0,1.3,38.0,1.8,'11111222,11111222,11111222' 
TCOON,ioos:station:TCOON:031:1,2019-10-02T12:30:00Z,28.4073,-96.7122,0.0,1.4,30.0,1.9,'11111222,11111222,11111222' 
TCOON,ioos:station:TCOON:031:1,2019-10-02T13:30:00Z,28.4073,-96.7122,0.0,1.8,47.0,2.4,'11111222,11111222,11111222' 
TCOON,ioos:station:TCOON:031:1,2019-10-02T14:30:00Z,28.4073,-96.7122,0.0,2.4,61.0,3.8,'11111222,11111222,11111222' 
TCOON,ioos:station:TCOON:031:1,2019-10-02T15:30:00Z,28.4073,-96.7122,0.0,3.1,62.0,4.8,'11111222,11111222,11111222' 
TCOON,ioos:station:TCOON:031:1,2019-10-02T16:30:00Z,28.4073,-96.7122,0.0,3.9,91.0,5.3,'11111222,11111222,11111222' 
TCOON,ioos:station:TCOON:031:1,2019-10-02T17:30:00Z,28.4073,-96.7122,0.0,4.1,48.0,7.1,'11111222,11111222,11111222' 
TCOON,ioos:station:TCOON:031:1,2019-10-02T18:30:00Z,28.4073,-96.7122,0.0,4.6,94.0,6.3,'11111222,11111222,11111222' 
TCOON,ioos:station:TCOON:031:1,2019-10-02T19:30:00Z,28.4073,-96.7122,0.0,4.0,108.0,4.9,'11111222,11111222,11111222' 
TCOON,ioos:station:TCOON:031:1,2019-10-02T20:30:00Z,28.4073,-96.7122,0.0,5.4,79.0,7.0,'11111222,11111222,11111222' 
TCOON,ioos:station:TCOON:031:1,2019-10-02T21:30:00Z,28.4073,-96.7122,0.0,6.3,91.0,9.0,'11111222,11111222,11111222' 
TCOON,ioos:station:TCOON:031:1,2019-10-02T22:24:00Z,28.4073,-96.7122,0.0,5.1,82.0,7.6,'11111222,11111222,11111222' 
TCOON,ioos:station:TCOON:031:1,2019-10-02T23:24:00Z,28.4073,-96.7122,0.0,5.0,83.0,7.2,'11111222,11111222,11111222' 
TCOON,ioos:station:TCOON:031:1,2019-10-03T00:24:00Z,28.4073,-96.7122,0.0,3.9,83.0,5.5,'11111222,11111222,11111222' 
TCOON,ioos:station:TCOON:031:1,2019-10-03T01:24:00Z,28.4073,-96.7122,0.0,3.0,84.0,4.9,'11111222,11111222,11111222' 
TCOON,ioos:station:TCOON:031:1,2019-10-03T02:24:00Z,28.4073,-96.7122,0.0,3.0,85.0,4.7,'11111222,11111222,11111222' 
TCOON,ioos:station:TCOON:031:1,2019-10-03T03:24:00Z,28.4073,-96.7122,0.0,3.2,85.0,4.2,'11111222,11111222,11111222' 
TCOON,ioos:station:TCOON:031:1,2019-10-03T04:24:00Z,28.4073,-96.7122,0.0,2.4,86.0,3.0,'11111222,11111222,11111222' 
TCOON,ioos:station:TCOON:031:1,2019-10-03T05:24:00Z,28.4073,-96.7122,0.0,2.0,78.0,3.3,'11111222,11111222,11111222' 
TCOON,ioos:station:TCOON:031:1,2019-10-03T06:24:00Z,28.4073,-96.7122,0.0,1.7,77.0,2.7,'11111222,11111222,11111222' 
TCOON,ioos:station:TCOON:031:1,2019-10-03T07:24:00Z,28.4073,-96.7122,0.0,1.1,52.0,1.6,'11111222,11111222,11111222' 
TCOON,ioos:station:TCOON:031:1,2019-10-03T08:24:00Z,28.4073,-96.7122,0.0,0.7,46.0,1.4,'11111222,11111222,11111222' 
TCOON,ioos:station:TCOON:031:1,2019-10-03T09:24:00Z,28.4073,-96.7122,0.0,1.4,8.0,2.0,'11111222,11111222,11111222' 
TCOON,ioos:station:TCOON:031:1,2019-10-03T10:24:00Z,28.4073,-96.7122,0.0,1.9,5.0,2.4,'11111222,11111222,11111222' 
TCOON,ioos:station:TCOON:031:1,2019-10-03T11:24:00Z,28.4073,-96.7122,0.0,2.0,15.0,2.8,'11111222,11111222,11111222' 
TCOON,ioos:station:TCOON:031:1,2019-10-03T12:24:00Z,28.4073,-96.7122,0.0,1.8,12.0,2.2,'11111222,11111222,11111222' 
TCOON,ioos:station:TCOON:031:1,2019-10-03T13:30:00Z,28.4073,-96.7122,0.0,2.0,42.0,2.9,'11111222,11111222,11111222' 
TCOON,ioos:station:TCOON:031:1,2019-10-03T14:30:00Z,28.4073,-96.7122,0.0,3.2,39.0,4.9,'11111222,11111222,11111222' 
TCOON,ioos:station:TCOON:031:1,2019-10-03T15:30:00Z,28.4073,-96.7122,0.0,3.9,44.0,6.6,'11111222,11111222,11111222' 
TCOON,ioos:station:TCOON:031:1,2019-10-03T16:30:00Z,28.4073,-96.7122,0.0,4.5,49.0,8.4,'11111222,11111222,11111222' 
TCOON,ioos:station:TCOON:031:1,2019-10-03T17:30:00Z,28.4073,-96.7122,0.0,4.3,39.0,8.0,'11111222,11111222,11111222' 
TCOON,ioos:station:TCOON:031:1,2019-10-03T18:30:00Z,28.4073,-96.7122,0.0,3.9,54.0,7.8,'11111222,11111222,11111222' 
TCOON,ioos:station:TCOON:031:1,2019-10-03T19:30:00Z,28.4073,-96.7122,0.0,6.7,87.0,8.9,'11111222,11111222,11111222' 
TCOON,ioos:station:TCOON:031:1,2019-10-03T20:30:00Z,28.4073,-96.7122,0.0,6.0,61.0,8.6,'11111222,11111222,11111222' 
TCOON,ioos:station:TCOON:031:1,2019-10-03T21:24:00Z,28.4073,-96.7122,0.0,7.1,97.0,8.4,'11111222,11111222,11111222' 
TCOON,ioos:station:TCOON:031:1,2019-10-03T22:30:00Z,28.4073,-96.7122,0.0,5.7,93.0,7.6,'11111222,11111222,11111222' 
TCOON,ioos:station:TCOON:031:1,2019-10-03T23:24:00Z,28.4073,-96.7122,0.0,4.0,80.0,6.9,'11111222,11111222,11111222' 
TCOON,ioos:station:TCOON:031:1,2019-10-04T00:24:00Z,28.4073,-96.7122,0.0,2.4,70.0,3.5,'11111222,11111222,11111222' 
TCOON,ioos:station:TCOON:031:1,2019-10-04T01:24:00Z,28.4073,-96.7122,0.0,1.6,33.0,3.1,'11111222,11111222,11111222' 
TCOON,ioos:station:TCOON:031:1,2019-10-04T02:24:00Z,28.4073,-96.7122,0.0,1.9,28.0,2.7,'11111222,11111222,11111222' 
TCOON,ioos:station:TCOON:031:1,2019-10-04T03:24:00Z,28.4073,-96.7122,0.0,1.7,41.0,2.3,'11111222,11111222,11111222' 
TCOON,ioos:station:TCOON:031:1,2019-10-04T04:24:00Z,28.4073,-96.7122,0.0,1.7,67.0,2.2,'11111222,11111222,11111222' 
TCOON,ioos:station:TCOON:031:1,2019-10-04T05:24:00Z,28.4073,-96.7122,0.0,1.3,31.0,1.8,'11111222,11111222,11111222' 
TCOON,ioos:station:TCOON:031:1,2019-10-04T06:24:00Z,28.4073,-96.7122,0.0,1.0,51.0,1.5,'11111222,11111222,11111222' 
TCOON,ioos:station:TCOON:031:1,2019-10-04T07:24:00Z,28.4073,-96.7122,0.0,1.3,34.0,2.1,'11111222,11111222,11111222' 
TCOON,ioos:station:TCOON:031:1,2019-10-04T08:24:00Z,28.4073,-96.7122,0.0,1.7,19.0,3.1,'11111222,11111222,11111222' 
TCOON,ioos:station:TCOON:031:1,2019-10-04T09:24:00Z,28.4073,-96.7122,0.0,1.3,333.0,2.1,'11111222,11111222,11111222' 
TCOON,ioos:station:TCOON:031:1,2019-10-04T10:24:00Z,28.4073,-96.7122,0.0,2.5,14.0,3.5,'11111222,11111222,11111222' 
TCOON,ioos:station:TCOON:031:1,2019-10-04T11:30:00Z,28.4073,-96.7122,0.0,1.6,13.0,2.4,'11111222,11111222,11111222' 
TCOON,ioos:station:TCOON:031:1,2019-10-04T12:30:00Z,28.4073,-96.7122,0.0,2.3,4.0,3.2,'11111222,11111222,11111222' 
TCOON,ioos:station:TCOON:031:1,2019-10-04T13:30:00Z,28.4073,-96.7122,0.0,2.9,5.0,3.6,'11111222,11111222,11111222' 
TCOON,ioos:station:TCOON:031:1,2019-10-04T14:30:00Z,28.4073,-96.7122,0.0,3.5,23.0,5.4,'11111222,11111222,11111222' 
TCOON,ioos:station:TCOON:031:1,2019-10-04T15:30:00Z,28.4073,-96.7122,0.0,4.5,15.0,6.1,'11111222,11111222,11111222' 
TCOON,ioos:station:TCOON:031:1,2019-10-04T16:30:00Z,28.4073,-96.7122,0.0,5.6,44.0,8.2,'11111222,11111222,11111222' 
TCOON,ioos:station:TCOON:031:1,2019-10-04T17:42:00Z,28.4073,-96.7122,0.0,4.4,89.0,7.8,'11111222,11111222,11111222' 
TCOON,ioos:station:TCOON:031:1,2019-10-04T18:42:00Z,28.4073,-96.7122,0.0,2.7,77.0,4.9,'11111222,11111222,11111222' 
TCOON,ioos:station:TCOON:031:1,2019-10-04T19:42:00Z,28.4073,-96.7122,0.0,5.0,110.0,6.2,'11111222,11111222,11111222' 
TCOON,ioos:station:TCOON:031:1,2019-10-04T20:36:00Z,28.4073,-96.7122,0.0,5.7,86.0,8.0,'11111222,11111222,11111222' 
TCOON,ioos:station:TCOON:031:1,2019-10-04T21:30:00Z,28.4073,-96.7122,0.0,6.1,92.0,7.5,'11111222,11111222,11111222' 
TCOON,ioos:station:TCOON:031:1,2019-10-04T22:30:00Z,28.4073,-96.7122,0.0,4.5,81.0,7.1,'11111222,11111222,11111222' 
TCOON,ioos:station:TCOON:031:1,2019-10-04T23:30:00Z,28.4073,-96.7122,0.0,4.9,95.0,6.5,'11111222,11111222,11111222' 
TCOON,ioos:station:TCOON:031:1,2019-10-05T00:30:00Z,28.4073,-96.7122,0.0,2.1,61.0,2.8,'11111222,11111222,11111222' 
TCOON,ioos:station:TCOON:031:1,2019-10-05T01:24:00Z,28.4073,-96.7122,0.0,1.6,82.0,2.8,'11111222,11111222,11111222' 
TCOON,ioos:station:TCOON:031:1,2019-10-05T02:24:00Z,28.4073,-96.7122,0.0,1.4,55.0,1.9,'11111222,11111222,11111222' 
TCOON,ioos:station:TCOON:031:1,2019-10-05T03:24:00Z,28.4073,-96.7122,0.0,1.0,66.0,1.3,'11111222,11111222,11111222' 
TCOON,ioos:station:TCOON:031:1,2019-10-05T04:24:00Z,28.4073,-96.7122,0.0,1.2,38.0,1.6,'11111222,11111222,11111222' 
TCOON,ioos:station:TCOON:031:1,2019-10-05T05:24:00Z,28.4073,-96.7122,0.0,0.6,33.0,0.8,'11111222,11111222,11111222' 
TCOON,ioos:station:TCOON:031:1,2019-10-05T06:24:00Z,28.4073,-96.7122,0.0,0.9,36.0,1.3,'11111222,11111222,11111222' 
TCOON,ioos:station:TCOON:031:1,2019-10-05T07:24:00Z,28.4073,-96.7122,0.0,1.0,6.0,1.4,'11111222,11111222,11111222' 
TCOON,ioos:station:TCOON:031:1,2019-10-05T08:24:00Z,28.4073,-96.7122,0.0,0.8,24.0,1.1,'11111222,11111222,11111222' 
TCOON,ioos:station:TCOON:031:1,2019-10-05T09:24:00Z,28.4073,-96.7122,0.0,0.3,293.0,0.5,'11111222,11111222,11111222' 
TCOON,ioos:station:TCOON:031:1,2019-10-05T10:24:00Z,28.4073,-96.7122,0.0,1.2,2.0,1.7,'11111222,11111222,11111222' 
TCOON,ioos:station:TCOON:031:1,2019-10-05T11:24:00Z,28.4073,-96.7122,0.0,2.1,1.0,2.8,'11111222,11111222,11111222' 
TCOON,ioos:station:TCOON:031:1,2019-10-05T12:24:00Z,28.4073,-96.7122,0.0,2.2,2.0,3.2,'11111222,11111222,11111222' 
TCOON,ioos:station:TCOON:031:1,2019-10-05T13:24:00Z,28.4073,-96.7122,0.0,2.5,17.0,3.1,'11111222,11111222,11111222' 
TCOON,ioos:station:TCOON:031:1,2019-10-05T14:24:00Z,28.4073,-96.7122,0.0,2.1,13.0,3.7,'11111222,11111222,11111222' 
TCOON,ioos:station:TCOON:031:1,2019-10-05T15:24:00Z,28.4073,-96.7122,0.0,2.8,358.0,4.2,'11111222,11111222,11111222' 
TCOON,ioos:station:TCOON:031:1,2019-10-05T16:30:00Z,28.4073,-96.7122,0.0,1.2,308.0,3.5,'11111222,11111222,11111222' 
TCOON,ioos:station:TCOON:031:1,2019-10-05T17:30:00Z,28.4073,-96.7122,0.0,2.3,200.0,2.9,'11111222,11111222,11111222' 
TCOON,ioos:station:TCOON:031:1,2019-10-05T18:24:00Z,28.4073,-96.7122,0.0,3.6,179.0,4.3,'11111222,11111222,11111222' 
TCOON,ioos:station:TCOON:031:1,2019-10-05T19:30:00Z,28.4073,-96.7122,0.0,3.9,186.0,4.6,'11111222,11111222,11111222' 
TCOON,ioos:station:TCOON:031:1,2019-10-05T20:30:00Z,28.4073,-96.7122,0.0,4.3,164.0,5.2,'11111222,11111222,11111222' 
TCOON,ioos:station:TCOON:031:1,2019-10-05T21:30:00Z,28.4073,-96.7122,0.0,5.1,114.0,7.3,'11111222,11111222,11111222' 
TCOON,ioos:station:TCOON:031:1,2019-10-05T22:30:00Z,28.4073,-96.7122,0.0,5.5,116.0,6.8,'11111222,11111222,11111222' 
TCOON,ioos:station:TCOON:031:1,2019-10-05T23:24:00Z,28.4073,-96.7122,0.0,4.9,121.0,6.4,'11111222,11111222,11111222' 
TCOON,ioos:station:TCOON:031:1,2019-10-06T00:24:00Z,28.4073,-96.7122,0.0,2.7,123.0,4.0,'11111222,11111222,11111222' 
TCOON,ioos:station:TCOON:031:1,2019-10-06T01:24:00Z,28.4073,-96.7122,0.0,2.6,121.0,3.3,'11111222,11111222,11111222' 
TCOON,ioos:station:TCOON:031:1,2019-10-06T02:24:00Z,28.4073,-96.7122,0.0,2.6,124.0,3.6,'11111222,11111222,11111222' 
TCOON,ioos:station:TCOON:031:1,2019-10-06T03:24:00Z,28.4073,-96.7122,0.0,1.9,109.0,2.5,'11111222,11111222,11111222' 
TCOON,ioos:station:TCOON:031:1,2019-10-06T04:24:00Z,28.4073,-96.7122,0.0,1.2,90.0,1.5,'11111222,11111222,11111222' 
TCOON,ioos:station:TCOON:031:1,2019-10-06T05:24:00Z,28.4073,-96.7122,0.0,1.3,76.0,1.8,'11111222,11111222,11111222' 
TCOON,ioos:station:TCOON:031:1,2019-10-06T06:24:00Z,28.4073,-96.7122,0.0,1.2,74.0,1.7,'11111222,11111222,11111222' 
TCOON,ioos:station:TCOON:031:1,2019-10-06T07:24:00Z,28.4073,-96.7122,0.0,1.0,77.0,1.4,'11111222,11111222,11111222' 
TCOON,ioos:station:TCOON:031:1,2019-10-06T08:24:00Z,28.4073,-96.7122,0.0,0.6,33.0,1.0,'11111222,11111222,11111222' 
TCOON,ioos:station:TCOON:031:1,2019-10-06T09:24:00Z,28.4073,-96.7122,0.0,1.0,61.0,1.4,'11111222,11111222,11111222' 
TCOON,ioos:station:TCOON:031:1,2019-10-06T10:24:00Z,28.4073,-96.7122,0.0,1.3,18.0,1.8,'11111222,11111222,11111222' 
TCOON,ioos:station:TCOON:031:1,2019-10-06T11:24:00Z,28.4073,-96.7122,0.0,1.1,19.0,1.6,'11111222,11111222,11111222' 
TCOON,ioos:station:TCOON:031:1,2019-10-06T12:24:00Z,28.4073,-96.7122,0.0,1.9,10.0,2.2,'11111222,11111222,11111222' 
TCOON,ioos:station:TCOON:031:1,2019-10-06T13:30:00Z,28.4073,-96.7122,0.0,1.4,23.0,2.1,'11111222,11111222,11111222' 
TCOON,ioos:station:TCOON:031:1,2019-10-06T14:30:00Z,28.4073,-96.7122,0.0,1.9,22.0,2.6,'11111222,11111222,11111222' 
TCOON,ioos:station:TCOON:031:1,2019-10-06T15:30:00Z,28.4073,-96.7122,0.0,2.7,359.0,3.7,'11111222,11111222,11111222' 
TCOON,ioos:station:TCOON:031:1,2019-10-06T16:30:00Z,28.4073,-96.7122,0.0,1.1,76.0,3.4,'11111222,11111222,11111222' 
TCOON,ioos:station:TCOON:031:1,2019-10-06T17:30:00Z,28.4073,-96.7122,0.0,3.2,61.0,5.1,'11111222,11111222,11111222' 
TCOON,ioos:station:TCOON:031:1,2019-10-06T18:30:00Z,28.4073,-96.7122,0.0,3.2,79.0,5.4,'11111222,11111222,11111222' 
TCOON,ioos:station:TCOON:031:1,2019-10-06T19:30:00Z,28.4073,-96.7122,0.0,4.2,68.0,5.8,'11111222,11111222,11111222' 
TCOON,ioos:station:TCOON:031:1,2019-10-06T20:30:00Z,28.4073,-96.7122,0.0,3.7,65.0,7.5,'11111222,11111222,11111222' 
TCOON,ioos:station:TCOON:031:1,2019-10-06T21:30:00Z,28.4073,-96.7122,0.0,3.6,100.0,7.1,'11111222,11111222,11111222' 
TCOON,ioos:station:TCOON:031:1,2019-10-06T22:30:00Z,28.4073,-96.7122,0.0,5.1,79.0,7.7,'11111222,11111222,11111222' 
TCOON,ioos:station:TCOON:031:1,2019-10-06T23:24:00Z,28.4073,-96.7122,0.0,4.8,96.0,6.2,'11111222,11111222,11111222' 
TCOON,ioos:station:TCOON:031:1,2019-10-07T00:24:00Z,28.4073,-96.7122,0.0,2.7,88.0,4.1,'11111222,11111222,11111222' 
TCOON,ioos:station:TCOON:031:1,2019-10-07T01:24:00Z,28.4073,-96.7122,0.0,1.7,93.0,2.5,'11111222,11111222,11111222' 
TCOON,ioos:station:TCOON:031:1,2019-10-07T02:24:00Z,28.4073,-96.7122,0.0,1.4,65.0,2.1,'11111222,11111222,11111222' 
TCOON,ioos:station:TCOON:031:1,2019-10-07T03:30:00Z,28.4073,-96.7122,0.0,0.8,19.0,1.2,'11111222,11111222,11111222' 
TCOON,ioos:station:TCOON:031:1,2019-10-07T04:24:00Z,28.4073,-96.7122,0.0,0.9,12.0,1.2,'11111222,11111222,11111222' 
TCOON,ioos:station:TCOON:031:1,2019-10-07T05:24:00Z,28.4073,-96.7122,0.0,0.5,339.0,1.5,'11111222,11111222,11111222' 
TCOON,ioos:station:TCOON:031:1,2019-10-07T06:24:00Z,28.4073,-96.7122,0.0,1.6,61.0,2.1,'11111222,11111222,11111222' 
TCOON,ioos:station:TCOON:031:1,2019-10-07T07:24:00Z,28.4073,-96.7122,0.0,1.7,24.0,2.2,'11111222,11111222,11111222' 
TCOON,ioos:station:TCOON:031:1,2019-10-07T08:24:00Z,28.4073,-96.7122,0.0,1.0,5.0,1.1,'11111222,11111222,11111222' 
TCOON,ioos:station:TCOON:031:1,2019-10-07T09:24:00Z,28.4073,-96.7122,0.0,2.9,331.0,3.7,'11111222,11111222,11111222' 
TCOON,ioos:station:TCOON:031:1,2019-10-07T10:24:00Z,28.4073,-96.7122,0.0,2.5,333.0,3.3,'11111222,11111222,11111222' 
TCOON,ioos:station:TCOON:031:1,2019-10-07T11:30:00Z,28.4073,-96.7122,0.0,2.6,357.0,4.1,'11111222,11111222,11111222' 
TCOON,ioos:station:TCOON:031:1,2019-10-07T12:30:00Z,28.4073,-96.7122,0.0,2.7,326.0,3.6,'11111222,11111222,11111222' 
TCOON,ioos:station:TCOON:031:1,2019-10-07T14:48:00Z,28.4073,-96.7122,0.0,4.3,342.0,7.7,'11111222,11111222,11111222' 
TCOON,ioos:station:TCOON:031:1,2019-10-07T15:30:00Z,28.4073,-96.7122,0.0,5.4,342.0,7.2,'11111222,11111222,11111222' 
TCOON,ioos:station:TCOON:031:1,2019-10-07T16:30:00Z,28.4073,-96.7122,0.0,4.4,355.0,6.4,'11111222,11111222,11111222' 
TCOON,ioos:station:TCOON:031:1,2019-10-07T17:30:00Z,28.4073,-96.7122,0.0,4.6,341.0,6.4,'11111222,11111222,11111222' 
TCOON,ioos:station:TCOON:031:1,2019-10-07T18:30:00Z,28.4073,-96.7122,0.0,5.6,343.0,7.4,'11111222,11111222,11111222' 
TCOON,ioos:station:TCOON:031:1,2019-10-07T19:30:00Z,28.4073,-96.7122,0.0,3.8,11.0,5.6,'11111222,11111222,11111222' 
TCOON,ioos:station:TCOON:031:1,2019-10-07T20:30:00Z,28.4073,-96.7122,0.0,5.5,329.0,8.5,'11111222,11111222,11111222' 
TCOON,ioos:station:TCOON:031:1,2019-10-07T21:30:00Z,28.4073,-96.7122,0.0,3.7,341.0,6.2,'11111222,11111222,11111222' 
TCOON,ioos:station:TCOON:031:1,2019-10-07T22:30:00Z,28.4073,-96.7122,0.0,4.6,14.0,7.3,'11111222,11111222,11111222' 
TCOON,ioos:station:TCOON:031:1,2019-10-07T23:24:00Z,28.4073,-96.7122,0.0,4.9,18.0,8.0,'11111222,11111222,11111222' 
TCOON,ioos:station:TCOON:031:1,2019-10-08T00:24:00Z,28.4073,-96.7122,0.0,5.0,359.0,6.7,'11111222,11111222,11111222' 
TCOON,ioos:station:TCOON:031:1,2019-10-08T01:24:00Z,28.4073,-96.7122,0.0,4.1,9.0,6.8,'11111222,11111222,11111222' 
TCOON,ioos:station:TCOON:031:1,2019-10-08T02:24:00Z,28.4073,-96.7122,0.0,2.7,346.0,4.5,'11111222,11111222,11111222' 
TCOON,ioos:station:TCOON:031:1,2019-10-08T03:24:00Z,28.4073,-96.7122,0.0,3.2,335.0,4.7,'11111222,11111222,11111222' 
TCOON,ioos:station:TCOON:031:1,2019-10-08T04:24:00Z,28.4073,-96.7122,0.0,4.7,356.0,6.5,'11111222,11111222,11111222' 
TCOON,ioos:station:TCOON:031:1,2019-10-08T05:24:00Z,28.4073,-96.7122,0.0,5.2,7.0,8.3,'11111222,11111222,11111222' 
TCOON,ioos:station:TCOON:031:1,2019-10-08T06:24:00Z,28.4073,-96.7122,0.0,3.1,17.0,5.7,'11111222,11111222,11111222' 
TCOON,ioos:station:TCOON:031:1,2019-10-08T07:24:00Z,28.4073,-96.7122,0.0,2.5,38.0,4.5,'11111222,11111222,11111222' 
TCOON,ioos:station:TCOON:031:1,2019-10-08T08:24:00Z,28.4073,-96.7122,0.0,2.3,5.0,3.3,'11111222,11111222,11111222' 
TCOON,ioos:station:TCOON:031:1,2019-10-08T09:24:00Z,28.4073,-96.7122,0.0,2.5,28.0,3.5,'11111222,11111222,11111222' 
TCOON,ioos:station:TCOON:031:1,2019-10-08T10:24:00Z,28.4073,-96.7122,0.0,1.9,28.0,2.7,'11111222,11111222,11111222' 
TCOON,ioos:station:TCOON:031:1,2019-10-08T11:24:00Z,28.4073,-96.7122,0.0,2.2,28.0,3.8,'11111222,11111222,11111222' 
TCOON,ioos:station:TCOON:031:1,2019-10-08T12:30:00Z,28.4073,-96.7122,0.0,2.9,8.0,4.8,'11111222,11111222,11111222' 
TCOON,ioos:station:TCOON:031:1,2019-10-08T13:30:00Z,28.4073,-96.7122,0.0,3.9,6.0,5.6,'11111222,11111222,11111222' 
TCOON,ioos:station:TCOON:031:1,2019-10-08T14:36:00Z,28.4073,-96.7122,0.0,3.1,12.0,4.5,'11111222,11111222,11111222' 
TCOON,ioos:station:TCOON:031:1,2019-10-08T15:36:00Z,28.4073,-96.7122,0.0,1.8,344.0,3.1,'11111222,11111222,11111222' 
TCOON,ioos:station:TCOON:031:1,2019-10-08T16:36:00Z,28.4073,-96.7122,0.0,1.0,58.0,2.6,'11111222,11111222,11111222' 
TCOON,ioos:station:TCOON:031:1,2019-10-08T17:30:00Z,28.4073,-96.7122,0.0,1.2,321.0,2.5,'11111222,11111222,11111222' 
TCOON,ioos:station:TCOON:031:1,2019-10-08T18:48:00Z,28.4073,-96.7122,0.0,2.2,222.0,3.2,'11111222,11111222,11111222' 
TCOON,ioos:station:TCOON:031:1,2019-10-08T19:54:00Z,28.4073,-96.7122,0.0,3.1,159.0,4.1,'11111222,11111222,11111222' 
TCOON,ioos:station:TCOON:031:1,2019-10-08T20:36:00Z,28.4073,-96.7122,0.0,3.2,152.0,4.6,'11111222,11111222,11111222' 
TCOON,ioos:station:TCOON:031:1,2019-10-08T21:30:00Z,28.4073,-96.7122,0.0,2.7,122.0,5.3,'11111222,11111222,11111222' 
TCOON,ioos:station:TCOON:031:1,2019-10-08T22:30:00Z,28.4073,-96.7122,0.0,4.6,90.0,5.7,'11111222,11111222,11111222' 
TCOON,ioos:station:TCOON:031:1,2019-10-08T23:24:00Z,28.4073,-96.7122,0.0,5.4,102.0,6.2,'11111222,11111222,11111222' 
TCOON,ioos:station:TCOON:031:1,2019-10-09T00:24:00Z,28.4073,-96.7122,0.0,3.3,103.0,4.1,'11111222,11111222,11111222' 
TCOON,ioos:station:TCOON:031:1,2019-10-09T01:24:00Z,28.4073,-96.7122,0.0,2.8,112.0,3.7,'11111222,11111222,11111222' 
TCOON,ioos:station:TCOON:031:1,2019-10-09T02:36:00Z,28.4073,-96.7122,0.0,2.3,99.0,2.8,'11111222,11111222,11111222' 
TCOON,ioos:station:TCOON:031:1,2019-10-09T03:24:00Z,28.4073,-96.7122,0.0,1.5,93.0,2.0,'11111222,11111222,11111222' 
TCOON,ioos:station:TCOON:031:1,2019-10-09T04:24:00Z,28.4073,-96.7122,0.0,1.9,100.0,2.3,'11111222,11111222,11111222' 
TCOON,ioos:station:TCOON:031:1,2019-10-09T05:24:00Z,28.4073,-96.7122,0.0,1.2,68.0,1.8,'11111222,11111222,11111222' 
TCOON,ioos:station:TCOON:031:1,2019-10-09T06:24:00Z,28.4073,-96.7122,0.0,1.4,85.0,1.8,'11111222,11111222,11111222' 
TCOON,ioos:station:TCOON:031:1,2019-10-09T07:24:00Z,28.4073,-96.7122,0.0,1.9,85.0,2.6,'11111222,11111222,11111222' 
TCOON,ioos:station:TCOON:031:1,2019-10-09T08:24:00Z,28.4073,-96.7122,0.0,0.9,63.0,1.8,'11111222,11111222,11111222' 
TCOON,ioos:station:TCOON:031:1,2019-10-09T09:24:00Z,28.4073,-96.7122,0.0,1.4,75.0,2.0,'11111222,11111222,11111222' 
TCOON,ioos:station:TCOON:031:1,2019-10-09T10:30:00Z,28.4073,-96.7122,0.0,1.6,69.0,1.8,'11111222,11111222,11111222' 
TCOON,ioos:station:TCOON:031:1,2019-10-09T11:30:00Z,28.4073,-96.7122,0.0,1.5,81.0,2.0,'11111222,11111222,11111222' 
TCOON,ioos:station:TCOON:031:1,2019-10-09T12:30:00Z,28.4073,-96.7122,0.0,1.6,82.0,1.9,'11111222,11111222,11111222' 
TCOON,ioos:station:TCOON:031:1,2019-10-09T13:30:00Z,28.4073,-96.7122,0.0,1.6,98.0,2.1,'11111222,11111222,11111222' 